User: anonymous   Login
Location: Berg
(47.2344°N, 9.5296°E)
Time: 02:28:04
(UTC+00:00)
Language:

BEESAT 2 - Orbit

View from above orbital plane
View from above orbital plane
View from above satellite
View from above satellite

Ground track
Ground track

The orbit data is extracted from the following two-line orbital elements,

1 39136U 13015G   22273.97846340  .00014422  00000-0  58363-3 0  9990
2 39136  64.8731 122.4614 0022594 292.7920  67.0823 15.24688101521994
Epoch (UTC): 30 September 2022 23:28:59
Eccentricity: 0.0022594
inclination: 64.8731°
perigee height: 476 km
apogee height: 507 km
right ascension of ascending node: 122.4614°
argument of perigee: 292.7920°
revolutions per day: 15.24688101
mean anomaly at epoch: 67.0823°
orbit number at epoch: 52199

The dashed part of the orbit path shows where the satellite is in the earth's shadow,  

DLR